Wind_Speed
12 12 12 13 13 13 14 15 17 19 21 23 24 23 24 26 30 20 7 2 1 7 4 2 2 0 2 1 3 4 3 1 4 5 5 2 3 3 3 3 5 2 4 14 19
12 12 13 14 14 13 15 15 17 19 21 22 23 22 22 25 24 12 2 3 7 5 2 2 2 4 2 1 2 3 3 7 6 5 4 6 3 6 4 8 4 12 15 20 21
13 14 13 14 15 14 15 16 17 19 20 21 21 20 21 19 6 6 4 5 7 8 2 0 1 1 1 0 3 2 4 4 8 6 7 7 4 4 6 1 8 17 14 15 20
15 15 14 14 15 15 16 16 17 19 20 21 20 19 18 7 3 1 4 8 8 9 4 3 3 3 1 3 3 2 9 5 6 8 7 7 5 1 1 3 14 19 19 18 14
18 16 15 15 16 16 16 17 17 18 20 20 19 17 7 3 9 5 7 2 11 9 4 4 3 2 3 4 4 3 5 6 4 9 7 7 3 6 3 13 20 22 19 14 14
21 18 15 16 16 17 17 17 17 18 19 18 16 13 3 5 4 5 3 1 3 7 4 5 5 4 3 4 1 4 4 4 5 6 6 7 3 5 3 13 15 17 18 15 13
21 20 17 16 16 17 17 18 17 18 18 17 13 7 1 15 3 6 4 10 11 9 3 9 3 3 2 6 3 4 4 3 2 4 5 5 2 4 13 13 15 12 13 17 16
19 21 19 16 16 17 18 18 18 19 18 13 8 2 7 7 7 16 15 14 11 13 17 10 6 4 3 3 7 4 3 3 4 5 2 5 4 6 16 16 13 11 13 13 17
18 21 20 17 17 17 18 19 20 20 13 8 2 1 9 11 8 10 16 7 4 10 15 11 4 1 5 3 5 5 2 2 3 7 3 2 4 4 15 16 13 11 12 13 15
19 19 21 18 16 17 18 18 18 9 1 2 1 3 7 3 6 13 10 10 3 3 2 3 4 3 3 4 2 4 3 1 3 4 4 5 6 6 10 15 16 11 12 14 17
19 19 20 18 15 15 16 7 3 1 4 8 5 4 4 11 8 2 5 9 3 5 3 2 3 2 5 5 6 3 5 4 3 4 3 7 6 8 9 6 7 8 12 15 17
17 17 17 15 14 13 11 2 3 2 8 13 17 11 20 3 4 5 7 5 5 5 2 4 3 6 5 2 4 0 4 6 6 5 5 4 10 4 7 7 13 14 10 12 14
17 16 14 14 14 12 7 9 13 9 4 7 7 6 6 12 7 6 6 5 4 6 6 5 4 2 3 4 1 1 2 5 6 5 2 4 5 3 5 5 8 10 14 12 18
19 16 16 14 7 7 5 3 16 13 2 6 5 7 7 8 4 12 7 6 2 10 6 4 2 3 2 2 4 3 3 8 3 2 4 1 3 4 6 14 11 14 12 15 15
21 17 17 20 2 4 5 12 4 1 3 3 4 7 7 11 2 6 8 3 7 6 5 8 5 5 4 5 4 6 3 3 3 2 2 2 3 6 4 9 15 17 15 17 17
19 18 17 21 18 13 7 12 5 4 7 3 7 7 6 3 2 1 5 3 4 5 3 5 1 2 5 1 4 2 1 4 3 1 2 2 5 5 4 10 17 15 19 16 15
21 19 20 18 4 7 9 1 3 4 4 4 5 6 5 6 3 1 5 6 6 5 4 2 1 3 2 2 3 6 5 3 4 4 5 3 2 8 7 7 8 14 18 15 14
21 19 21 21 14 5 2 3 8 6 6 4 3 5 8 6 5 5 5 5 3 4 3 5 4 4 1 3 4 2 5 4 4 2 4 3 4 6 5 9 1 7 8 8 11
20 20 16 20 21 10 1 11 7 6 4 3 3 4 4 4 6 5 8 7 9 8 7 4 3 3 3 1 4 1 0 2 6 3 3 3 7 10 7 4 6 2 6 8 9
19 9 18 18 26 7 4 18 6 5 4 4 8 6 8 8 7 7 8 5 5 9 7 7 2 2 4 3 6 4 5 1 2 3 2 4 4 5 6 5 4 6 6 7 4
15 4 14 22 20 4 13 11 11 13 4 3 2 2 7 7 9 6 8 4 7 6 5 5 5 2 1 6 7 2 1 1 4 4 4 1 5 6 7 6 6 6 7 8 8
10 5 25 34 7 6 14 7 6 15 1 3 3 4 4 7 7 8 9 8 8 10 9 7 6 4 9 2 2 2 5 5 4 4 1 4 6 4 8 9 5 8 6 6 6
8 5 24 31 13 13 8 17 7 6 6 6 4 1 4 2 4 7 8 4 7 8 10 8 1 3 6 5 4 4 5 4 4 4 6 5 6 3 5 6 9 9 8 7 8
5 6 5 10 13 20 20 13 23 14 11 3 3 3 2 3 6 6 7 4 7 8 5 9 5 8 8 8 4 4 5 5 6 3 4 6 6 6 8 5 8 8 9 7 7
4 7 7 13 20 17 20 12 16 16 10 7 5 9 3 3 3 4 2 3 1 6 5 5 6 5 6 4 5 4 3 7 5 5 6 6 7 7 6 8 7 6 4 2 6
8 3 4 2 17 28 18 22 25 22 8 10 15 3 10 9 7 3 4 3 6 2 5 1 3 3 2 3 2 4 7 6 6 4 6 5 5 3 2 3 7 7 7 7 5
13 3 2 7 17 19 29 20 21 17 14 15 15 16 11 13 8 10 8 3 6 10 6 6 6 4 4 2 3 5 8 7 6 4 5 6 8 4 4 6 4 5 6 7 7
Wind_Direction
299 307 315 317 316 318 316 321 327 331 334 336 334 330 328 326 321 319 252 211 35 160 182 218 325 211 132 87 198 137 79 171 241 212 256 96 99 326 261 154 54 309 114 117 132
291 299 308 314 313 314 315 319 325 330 333 334 332 330 329 329 325 286 319 261 190 171 145 57 72 15 35 202 232 121 143 213 213 194 246 165 150 205 144 126 78 98 102 124 133
283 291 301 307 311 309 314 316 323 327 331 330 331 330 330 333 331 250 356 347 199 205 164 320 32 99 321 176 236 178 205 215 245 203 162 168 201 179 145 187 166 141 135 145 145
276 283 294 303 307 308 311 315 320 324 327 327 328 331 330 345 292 327 311 338 179 176 171 130 96 84 286 259 229 270 244 233 284 152 139 158 126 110 302 290 137 139 145 149 148
270 275 287 295 303 307 309 314 317 321 324 324 327 334 345 349 252 298 342 334 172 162 187 149 141 172 308 285 290 202 280 323 179 143 141 141 146 130 53 109 131 143 155 149 173
260 269 278 287 299 305 308 310 313 318 322 321 325 335 358 291 275 304 43 70 198 189 183 186 190 188 257 257 210 266 294 195 124 163 156 146 144 131 108 129 140 154 152 168 183
258 260 269 281 292 300 306 307 309 314 319 316 321 343 283 241 213 160 270 279 282 217 230 218 187 148 242 291 312 298 46 37 335 207 166 141 74 93 147 155 158 164 156 166 189
251 256 262 274 286 296 303 305 305 308 310 307 319 355 250 271 286 260 263 270 252 243 239 272 239 197 202 299 347 8 57 107 242 176 81 70 241 149 161 158 172 161 164 181 181
253 251 254 267 281 292 301 306 303 299 294 288 316 93 265 305 267 253 240 214 212 243 247 283 332 66 18 50 355 10 270 187 164 226 76 103 258 131 171 172 176 175 163 183 187
254 252 247 260 276 290 303 310 302 298 211 187 213 333 271 333 315 292 257 210 227 51 82 40 45 58 37 66 272 293 350 331 131 197 171 213 256 132 193 183 175 174 171 177 185
257 256 243 252 270 288 312 323 335 272 200 207 195 252 277 328 301 255 208 134 120 57 165 27 74 193 230 182 216 262 268 277 323 284 182 210 241 200 179 161 165 171 184 187 193
256 254 241 248 265 280 300 277 247 315 301 231 243 248 259 333 301 294 167 139 143 202 168 30 239 230 192 283 354 29 335 320 299 296 195 171 231 212 184 184 186 188 195 197 193
252 249 241 247 260 276 243 243 326 271 278 280 207 213 208 159 209 256 163 144 138 137 201 169 245 147 261 118 342 337 213 255 242 328 27 116 325 168 206 212 204 210 204 195 187
241 243 230 235 261 237 243 199 321 177 325 267 223 249 171 152 239 211 208 140 150 193 157 233 279 140 228 200 178 332 270 273 293 42 221 100 266 273 204 208 204 204 193 200 197
233 231 220 215 228 217 166 347 125 115 315 231 188 162 166 159 171 232 175 88 165 174 132 241 166 192 230 235 129 232 284 304 230 219 11 331 99 262 145 213 219 213 205 200 199
231 222 217 215 232 241 280 330 148 56 248 287 148 161 141 192 242 111 154 100 151 118 235 222 268 163 223 228 178 265 166 61 56 96 22 247 139 283 195 207 221 217 211 199 196
228 223 220 211 211 253 263 175 143 189 321 222 182 159 165 165 213 133 136 158 159 112 189 51 268 290 205 118 350 65 53 349 352 11 225 351 26 238 268 272 221 209 204 198 183
225 226 225 217 211 215 229 168 214 218 236 304 170 113 174 148 223 172 150 193 235 120 129 145 322 193 263 163 169 154 143 161 227 212 281 0 255 259 262 274 13 182 189 179 172
217 228 228 228 204 227 237 209 197 216 217 232 76 129 225 199 161 139 189 195 192 171 152 142 248 331 269 247 137 153 343 188 102 19 55 258 296 314 329 22 56 124 158 184 180
191 213 229 213 205 157 230 216 202 228 347 1 198 173 177 197 158 151 180 209 216 183 151 205 152 193 298 31 287 167 159 98 1 158 230 286 286 246 311 304 316 143 215 233 219
174 214 211 184 164 149 220 213 215 260 313 324 317 253 215 176 176 172 191 239 207 171 130 138 122 254 165 200 210 157 216 92 129 137 166 209 264 218 246 261 270 280 192 196 196
173 212 172 166 180 191 219 192 238 239 45 304 324 244 238 184 186 187 203 205 186 151 158 197 137 172 209 212 165 205 180 134 121 233 176 153 268 252 240 250 259 252 216 216 197
179 219 174 173 199 207 210 211 247 218 194 219 244 320 2 229 189 194 199 221 153 153 158 179 180 90 345 5 17 230 207 169 120 83 202 146 255 280 266 237 227 240 255 203 207
187 188 172 198 223 197 193 197 213 234 260 318 297 300 260 283 230 211 206 194 170 200 117 114 144 157 186 207 171 192 202 174 144 129 194 222 262 275 254 306 301 267 253 229 207
200 220 190 191 208 209 191 197 202 212 200 199 268 231 202 313 299 170 149 136 355 170 116 135 165 161 217 190 187 214 215 165 173 202 164 244 205 262 282 276 278 263 201 195 209
181 193 169 235 192 203 192 207 204 206 213 208 230 230 216 219 230 296 157 187 188 194 138 198 181 121 90 7 202 198 220 201 207 196 258 253 242 235 313 21 33 44 88 68 63
207 272 247 194 181 191 212 197 202 195 222 243 213 226 240 236 238 246 225 260 204 156 163 136 132 108 220 4 15 328 224 212 221 195 177 196 221 148 64 70 45 52 63 66 46
Height
831 828 826 826 823 820 819 817 815 813 811 809 805 800 796 791 786 781 778 771 770 770 772 774 775 775 776 779 778 780 805 809 796 795 783 780 782 778 778 777 782 786 786 791 798
828 827 825 824 822 819 818 816 814 812 810 808 803 799 795 790 784 777 770 769 770 771 772 773 776 775 780 779 780 788 802 793 780 775 779 782 782 779 781 784 792 791 793 796 800
826 826 823 822 820 818 817 815 813 811 808 806 802 798 794 790 786 771 768 768 768 770 772 774 775 776 781 780 778 780 790 774 769 768 774 779 781 777 780 782 786 788 793 799 800
823 823 821 820 819 817 815 813 811 809 806 804 800 798 794 792 793 768 768 768 768 770 772 773 776 781 785 783 775 782 772 767 761 766 772 780 774 775 780 777 778 788 795 798 799
821 820 819 818 817 815 814 812 810 807 805 802 799 797 794 794 781 769 767 767 768 769 772 774 776 779 785 779 775 778 767 761 760 764 768 770 772 776 786 784 786 792 798 800 799
817 818 816 816 814 814 812 809 808 805 803 801 798 797 796 797 770 768 768 768 768 770 771 772 772 772 777 777 776 767 768 769 765 767 765 770 773 772 790 787 791 792 797 800 798
814 814 814 814 812 811 809 807 805 803 801 799 797 797 797 780 768 767 767 767 769 769 769 767 769 771 771 774 765 765 772 771 770 767 766 765 776 780 784 788 791 797 798 800 798
810 811 812 810 810 808 806 804 802 800 799 797 795 796 789 767 767 765 765 764 765 766 768 768 768 768 770 766 769 774 775 786 770 768 766 769 789 781 782 784 791 796 796 801 797
806 807 808 808 807 806 803 801 799 796 795 795 795 795 783 766 765 761 761 763 764 764 764 766 767 772 773 782 790 787 793 782 779 768 773 777 782 777 781 782 788 790 792 796 797
802 804 804 806 805 803 800 798 794 792 793 795 795 798 772 765 761 759 759 761 763 763 765 769 777 785 791 794 810 797 791 782 780 772 775 783 778 780 780 778 780 787 788 791 793
800 801 801 803 803 801 799 796 796 794 793 782 779 776 766 763 759 755 756 760 762 768 780 778 789 792 785 783 782 786 787 783 771 764 770 780 776 774 780 777 779 784 787 787 789
797 798 799 800 801 799 798 798 795 797 790 773 770 770 763 767 770 755 755 763 768 781 778 786 792 775 772 772 774 776 782 784 776 768 772 778 777 772 776 773 774 777 784 784 784
794 795 797 799 799 797 795 794 792 793 794 768 761 760 758 763 766 760 754 759 769 782 781 788 775 767 770 774 778 778 784 784 784 775 770 778 783 776 772 772 772 773 771 777 777
790 793 794 798 800 794 793 792 788 788 797 770 758 749 751 753 760 748 750 755 767 777 782 782 768 770 775 775 776 787 774 775 776 786 796 775 803 779 774 772 770 770 773 773 775
786 789 791 795 792 793 791 789 788 790 812 753 749 739 743 750 746 747 746 753 770 773 778 779 774 775 777 771 768 782 771 776 772 781 786 783 797 784 773 777 767 763 765 766 767
784 785 788 789 790 787 788 788 789 804 804 752 742 748 751 747 746 743 747 746 753 769 769 772 765 767 770 762 764 762 770 779 788 792 807 784 793 791 776 765 756 755 756 761 765
779 783 784 785 785 787 789 789 798 805 756 749 746 745 749 753 752 747 753 763 773 786 785 772 772 764 764 770 767 770 789 813 819 822 812 784 791 781 754 750 749 749 748 752 759
777 779 778 779 783 785 786 792 793 768 761 739 737 744 753 749 752 753 757 767 761 766 786 790 795 769 760 768 775 776 786 816 807 823 812 786 793 772 748 745 738 741 744 749 754
774 776 775 773 779 785 787 782 774 763 747 743 738 749 752 745 748 751 761 764 758 759 777 787 783 767 764 761 762 773 786 779 808 815 826 802 781 758 748 741 745 743 745 748 753
769 773 768 769 775 784 784 760 759 749 743 741 748 742 756 752 753 754 762 749 752 750 749 769 782 771 769 764 763 767 768 793 802 805 809 800 794 787 758 748 741 754 751 749 749
767 769 757 767 773 777 765 758 753 741 745 746 743 741 742 747 747 756 753 742 742 747 748 762 771 779 772 774 773 777 779 780 790 805 812 820 798 767 757 748 746 744 748 752 752
759 759 750 758 763 759 756 755 750 744 743 745 742 741 737 739 744 747 749 740 732 741 756 755 774 792 776 759 759 763 771 777 809 795 807 818 798 752 752 748 748 745 744 745 747
748 749 748 749 743 743 749 750 750 744 745 745 741 738 736 734 744 739 740 727 731 738 748 753 774 792 782 772 768 772 769 768 781 797 801 815 794 750 750 746 744 747 745 746 747
739 744 740 741 727 728 741 743 747 740 746 745 743 738 736 734 732 735 735 728 729 732 735 737 762 768 788 772 763 765 760 763 773 804 790 794 772 754 748 751 747 744 743 744 745
725 722 710 715 720 723 729 734 741 740 740 740 743 742 741 743 731 732 731 731 729 735 733 738 757 757 757 753 753 751 754 764 767 770 780 769 773 758 754 749 746 742 738 739 743
711 712 709 708 714 720 721 721 730 734 734 736 738 732 736 744 736 730 731 731 732 729 733 738 758 748 759 758 754 756 755 757 760 759 764 761 762 752 750 752 752 749 746 747 745
701 704 704 702 708 720 698 713 724 730 729 728 730 734 737 734 728 724 721 721 717 726 737 742 756 771 773 772 767 785 764 755 751 749 752 764 755 750 756 758 758 755 752 751 750